[[{"header":{"parameterUnit":"m.s-1","parameterCategory":1,"la1":30.2991,"la2":30.254,"lo1":-89.0895,"lo2":-89.0444,"dy":0.0017,"dx":0.0017,"nx":28,"ny":28,"refTime":"2024-12-20T09:00:00:Z","depth":0,"parameterNumber":2,"parameterNumberName":"U-component_of_WINDS"},"data":[0,0,0,0,0,0,0,0,0,0,0,0,0,0,0,0,0,0,0,0,0,0,0,0,0,0,0,0,0,0,0,0,0,0,0,0,0,0,0,0,0,0,0,0,0,0,0,0,0,0,0,0,0,0,0,0,0,0,-0.8823,-0.8823,0,-0.8871,-0.8872,-0.8872,-0.8858,-0.8857,-0.8856,-0.8855,-0.8905,-0.8907,-0.8909,0,0,0,0,0,0,0,0,0,0,0,0,0,-0.8717,-0.8719,-0.8823,-0.8823,-0.8824,-0.8871,-0.8872,-0.8872,-0.8858,-0.8857,-0.8855,-0.8854,-0.8904,-0.8907,-0.891,0,0,0,0,0,0,0,0,0,0,0,0,0,-0.8764,-0.872,-0.8823,-0.8822,-0.8823,-0.8871,-0.8872,-0.8872,-0.8858,-0.8857,-0.8855,-0.8854,-0.8903,-0.8907,-0.891,-0.8961,0,0,-0.892,-0.8922,0,0,0,0,0,0,0,0,-0.8761,-0.8768,-0.8822,-0.8822,-0.8823,-0.8857,-0.8853,-0.8902,-0.8858,-0.8845,-0.8855,-0.8853,-0.889,-0.8895,-0.8907,-0.8964,-0.8966,-0.8921,-0.8923,-0.8924,-0.8925,0,0,0,0,0,0,0,-0.8758,-0.8766,-0.8842,-0.8822,-0.8823,-0.882,-0.8824,-0.8862,-0.8875,-0.8846,-0.8845,-0.8851,-0.889,-0.8904,-0.8908,-0.8967,-0.8921,-0.8924,-0.8926,-0.8927,-0.9066,-0.9068,0,0,0,0,0,0,-0.8754,-0.8763,-0.884,-0.8843,-0.8788,-0.8823,-0.8828,-0.8847,-0.8875,-0.8878,-0.8852,-0.885,-0.8899,-0.8904,-0.891,-0.8971,-0.8924,-0.8927,-0.8929,-0.9065,-0.9067,-0.9068,0,0,0,0,0,0,-0.8752,-0.8761,-0.8838,-0.8803,-0.8812,-0.8826,-0.8848,-0.8849,-0.8863,-0.888,-0.8882,-0.8863,-0.8898,-0.8905,-0.8948,-0.8972,-0.8929,-0.8932,-0.9063,-0.9065,-0.9067,-0.9094,0,0,0,0,0,0,-0.8749,-0.8761,-0.8781,-0.8803,-0.8814,-0.8876,-0.8849,-0.8851,-0.8869,-0.8866,-0.8891,-0.8893,-0.8897,-0.8943,-0.8952,-0.8976,-0.8935,-0.9061,-0.9064,-0.9067,-0.9091,-0.9097,-0.9102,0,0,0,0,0,-0.8746,-0.8787,-0.8782,-0.8791,-0.884,-0.8878,-0.8884,-0.8887,-0.8871,-0.8891,-0.8901,-0.8893,-0.8968,-0.8948,-0.8957,-0.8983,-0.9059,-0.9063,-0.9066,-0.9089,-0.9096,-0.9102,0,0,0,0,0,0,-0.8767,-0.879,-0.8785,-0.8835,-0.8854,-0.8875,-0.8901,-0.8895,-0.892,-0.8917,-0.892,-0.8925,-0.8969,-0.8981,-0.8957,-0.9034,-0.9011,-0.9017,-0.9025,-0.9032,-0.9037,-0.9034,-0.8938,0,0,0,0,0,-0.8778,-0.8807,-0.8825,-0.8867,-0.8877,-0.8887,-0.8904,-0.8904,-0.8925,-0.8933,-0.8947,-0.8968,-0.8996,-0.9014,-0.9041,-0.9092,-0.9097,-0.9115,-0.912,-0.9125,-0.913,-0.9156,-0.9164,-0.9081,-0.908,-0.908,0,0,-0.88,-0.8816,-0.8834,-0.8872,-0.8887,-0.8917,-0.8895,-0.8927,-0.8949,-0.8939,-0.898,-0.8991,-0.9013,-0.906,-0.9082,-0.9071,-0.9154,-0.913,-0.9133,-0.9136,-0.9161,-0.9169,-0.9176,-0.9083,-0.9083,-0.9082,0,0,-0.8856,-0.8871,-0.8907,-0.8923,-0.8946,-0.8952,-0.896,-0.8982,-0.8988,-0.903,-0.9022,-0.9048,-0.9097,-0.9113,-0.9128,-0.9187,-0.918,-0.9196,-0.9225,-0.9251,-0.9258,-0.9263,-0.9284,-0.9292,-0.9201,-0.9201,-0.9201,0,-0.8881,-0.8925,-0.8927,-0.896,-0.8976,-0.8967,-0.9003,-0.9018,-0.9049,-0.906,-0.9048,-0.9108,-0.9122,-0.9172,-0.9187,-0.9199,-0.9208,-0.9193,-0.9257,-0.9262,-0.9268,-0.9288,-0.9295,-0.9203,-0.9202,-0.9202,-0.9202,0,-0.8954,-0.8985,-0.9012,-0.9041,-0.906,-0.9095,-0.9101,-0.912,-0.9118,-0.9125,-0.9167,-0.9184,-0.9214,-0.9225,-0.9225,-0.9275,-0.9267,-0.9256,-0.9233,-0.9278,-0.9296,-0.9304,-0.9205,-0.9204,-0.9204,-0.9203,0,0,-0.9027,-0.9055,-0.9065,-0.9077,-0.9101,-0.9125,-0.9158,-0.9187,-0.9203,-0.9224,-0.9252,-0.9292,-0.9281,-0.9297,-0.9298,-0.932,-0.9365,-0.9306,-0.9306,-0.9316,-0.9421,-0.9429,-0.9438,-0.936,-0.9362,-0.9363,-0.9419,0,-0.9084,-0.9143,-0.9144,-0.9198,-0.9226,-0.9217,-0.9246,-0.9263,-0.927,-0.9295,-0.9303,-0.9331,-0.9314,-0.9324,-0.9346,-0.9355,-0.9386,-0.9351,-0.9386,-0.9387,-0.9381,-0.9448,-0.9458,-0.9509,-0.9426,-0.9427,-0.9428,0,-0.9159,-0.9182,-0.9238,-0.9257,-0.9269,-0.9295,-0.932,-0.9344,-0.9363,-0.9366,-0.9384,-0.938,-0.9414,-0.939,-0.9435,-0.9411,-0.9425,-0.9432,-0.9434,-0.9437,-0.9411,-0.9453,-0.9526,-0.9534,-0.944,-0.9439,-0.9438,0,-0.9206,-0.925,-0.9289,-0.93,-0.9323,-0.9341,-0.9352,-0.9369,-0.9386,-0.9408,-0.9418,-0.9444,-0.9458,-0.9478,-0.9481,-0.9463,-0.9526,-0.9503,-0.953,-0.953,-0.9544,-0.9543,-0.962,-0.9553,-0.9553,-0.9553,-0.9553,0,-0.927,-0.9305,-0.931,-0.9335,-0.9373,-0.9373,-0.9411,-0.942,-0.9435,-0.9461,-0.9454,-0.9478,-0.948,-0.9505,-0.9507,-0.9544,-0.9551,-0.9554,-0.9554,-0.9555,-0.9554,-0.9564,-0.9561,-0.9555,-0.9554,-0.9554,-0.9554,0,-0.9328,-0.9334,-0.9376,-0.9393,-0.9398,-0.9426,-0.944,-0.9463,-0.9468,-0.95,-0.9508,-0.9517,-0.9545,-0.955,-0.9583,-0.9585,-0.9629,-0.9625,-0.9622,-0.9622,-0.9648,-0.9645,-0.9734,-0.9746,-0.9671,-0.9672,-0.9673,0,-0.9369,-0.9395,-0.9415,-0.9431,-0.9442,-0.9469,-0.9485,-0.9486,-0.9503,-0.9526,-0.9546,-0.9573,-0.9595,-0.964,-0.9649,-0.9674,-0.9671,-0.9701,-0.9675,-0.9674,-0.9671,-0.967,-0.9672,-0.9706,-0.9707,-0.9707,-0.9708,0,-0.944,-0.9441,-0.9465,-0.9489,-0.9509,-0.9528,-0.9546,-0.956,-0.9563,-0.9583,-0.9611,-0.9628,-0.9661,-0.9688,-0.9712,-0.9722,-0.9715,-0.9715,-0.9723,-0.9724,-0.972,-0.9722,-0.9635,-0.9714,-0.9713,-0.9713,-0.9712,-0.9712,-0.9491,-0.9513,-0.953,-0.9556,-0.957,-0.9587,-0.9608,-0.9616,-0.964,-0.9667,-0.9666,-0.9697,-0.9713,-0.9745,-0.9757,-0.9781,-0.9771,-0.9782,-0.9785,-0.9788,-0.979,-0.9716,-0.9785,-0.9785,-0.9785,-0.9785,-0.9785,0,-0.9561,-0.9571,-0.9595,-0.962,-0.9641,-0.9632,-0.9651,-0.9669,-0.9696,-0.9712,-0.9733,-0.9765,-0.979,-0.9801,-0.9826,-0.9842,-0.984,-0.9849,-0.9848,-0.985,-0.9797,-0.9788,-0.985,-0.985,-0.985,-0.985,-0.985,-0.985,-0.96,-0.9637,-0.964,-0.9683,-0.9693,-0.9723,-0.9734,-0.9749,-0.9762,-0.9798,-0.9819,-0.9825,-0.9839,-0.9864,-0.9887,-0.9889,-0.9898,-0.9909,-0.991,-0.986,-0.9854,-0.9847,-0.9839,-0.9911,-0.9911,-0.996,-0.9961,-0.9961]},{"header":{"parameterUnit":"m.s-1","parameterCategory":1,"la1":30.2991,"la2":30.254,"lo1":-89.0895,"lo2":-89.0444,"dy":0.0017,"dx":0.0017,"nx":28,"ny":28,"refTime":"2024-12-20T09:00:00:Z","depth":0,"parameterNumber":3,"parameterNumberName":"V-component_of_WINDS"},"data":[0,0,0,0,0,0,0,0,0,0,0,0,0,0,0,0,0,0,0,0,0,0,0,0,0,0,0,0,0,0,0,0,0,0,0,0,0,0,0,0,0,0,0,0,0,0,0,0,0,0,0,0,0,0,0,0,0,0,-5.1716,-5.1717,0,-5.1833,-5.1834,-5.1836,-5.1771,-5.1768,-5.1765,-5.1762,-5.1877,-5.1883,-5.1889,0,0,0,0,0,0,0,0,0,0,0,0,0,-5.1431,-5.1437,-5.1716,-5.1717,-5.1719,-5.1833,-5.1834,-5.1836,-5.1772,-5.1768,-5.1764,-5.1761,-5.1875,-5.1882,-5.189,0,0,0,0,0,0,0,0,0,0,0,0,0,-5.1552,-5.1439,-5.1716,-5.1701,-5.1701,-5.1833,-5.1835,-5.1836,-5.1773,-5.1768,-5.1763,-5.1759,-5.1873,-5.1882,-5.1891,-5.2043,0,0,-5.1918,-5.1922,0,0,0,0,0,0,0,0,-5.1546,-5.1563,-5.1702,-5.1702,-5.1702,-5.1783,-5.1776,-5.1905,-5.1774,-5.1745,-5.1762,-5.1756,-5.1849,-5.186,-5.1893,-5.2048,-5.2053,-5.1919,-5.1925,-5.1929,-5.1931,0,0,0,0,0,0,0,-5.1537,-5.1557,-5.1762,-5.1704,-5.1704,-5.1686,-5.1698,-5.1801,-5.1823,-5.1747,-5.1743,-5.1758,-5.1849,-5.1884,-5.1895,-5.2055,-5.1919,-5.1927,-5.1933,-5.1936,-5.2338,-5.2343,0,0,0,0,0,0,-5.153,-5.1551,-5.1758,-5.1766,-5.1611,-5.1695,-5.1709,-5.1762,-5.1821,-5.1826,-5.1762,-5.1755,-5.1871,-5.1884,-5.1899,-5.2079,-5.1929,-5.1937,-5.1942,-5.2333,-5.234,-5.2345,0,0,0,0,0,0,-5.1525,-5.155,-5.1754,-5.1657,-5.1682,-5.1705,-5.1765,-5.1767,-5.1802,-5.1833,-5.1836,-5.1794,-5.1868,-5.1886,-5.2007,-5.2082,-5.1941,-5.1949,-5.2327,-5.2335,-5.2342,-5.2442,0,0,0,0,0,0,-5.1517,-5.1548,-5.1607,-5.1659,-5.1687,-5.1863,-5.177,-5.1772,-5.1818,-5.181,-5.1864,-5.1868,-5.1865,-5.1994,-5.2016,-5.2092,-5.1957,-5.232,-5.2331,-5.234,-5.2432,-5.2453,-5.247,0,0,0,0,0,-5.1507,-5.163,-5.1611,-5.1636,-5.1762,-5.1867,-5.1883,-5.1878,-5.1825,-5.1883,-5.1903,-5.1866,-5.2071,-5.2007,-5.2031,-5.2111,-5.2316,-5.2328,-5.2339,-5.2424,-5.2449,-5.247,0,0,0,0,0,0,-5.1586,-5.1637,-5.1616,-5.176,-5.181,-5.1856,-5.193,-5.1905,-5.197,-5.1959,-5.1949,-5.1962,-5.2088,-5.2112,-5.204,-5.226,-5.2184,-5.2202,-5.224,-5.2264,-5.2283,-5.2274,-5.1964,0,0,0,0,0,-5.162,-5.1703,-5.1742,-5.1865,-5.1891,-5.1907,-5.1952,-5.1945,-5.1995,-5.2015,-5.2044,-5.2093,-5.2167,-5.2217,-5.2288,-5.2435,-5.2445,-5.2502,-5.2521,-5.2536,-5.2551,-5.2629,-5.2654,-5.2384,-5.2384,-5.2384,0,0,-5.1692,-5.173,-5.1782,-5.1882,-5.192,-5.2003,-5.1925,-5.2017,-5.2078,-5.2029,-5.2145,-5.2168,-5.2221,-5.2356,-5.2417,-5.238,-5.2628,-5.2551,-5.2563,-5.257,-5.2643,-5.2669,-5.2692,-5.2392,-5.239,-5.2389,0,0,-5.1864,-5.1902,-5.2009,-5.2048,-5.2106,-5.2115,-5.2141,-5.2191,-5.2204,-5.2322,-5.2286,-5.2357,-5.2487,-5.2527,-5.2564,-5.275,-5.2718,-5.2773,-5.2871,-5.2947,-5.2968,-5.2987,-5.3052,-5.3076,-5.2788,-5.2788,-5.2788,0,-5.1945,-5.2072,-5.2066,-5.2161,-5.2205,-5.2165,-5.2271,-5.2309,-5.2387,-5.2418,-5.2375,-5.2537,-5.257,-5.2713,-5.2758,-5.279,-5.2817,-5.2767,-5.2966,-5.2985,-5.3002,-5.3064,-5.3089,-5.2794,-5.2794,-5.2793,-5.2792,0,-5.2168,-5.2256,-5.2334,-5.2412,-5.2465,-5.2565,-5.2572,-5.2626,-5.2613,-5.2626,-5.2745,-5.2784,-5.2861,-5.2894,-5.2882,-5.3035,-5.301,-5.2967,-5.289,-5.3034,-5.3092,-5.3116,-5.2803,-5.2801,-5.2799,-5.2798,0,0,-5.2394,-5.2467,-5.2496,-5.253,-5.259,-5.2657,-5.2754,-5.2831,-5.2877,-5.2932,-5.3012,-5.3122,-5.3082,-5.3124,-5.3116,-5.3183,-5.3327,-5.3132,-5.3133,-5.3166,-5.3495,-5.3526,-5.3554,-5.3306,-5.331,-5.3314,-5.349,0,-5.257,-5.2742,-5.2739,-5.2898,-5.2978,-5.294,-5.3024,-5.307,-5.3084,-5.3153,-5.3167,-5.3246,-5.3188,-5.3213,-5.3278,-5.3296,-5.3392,-5.3283,-5.3378,-5.3382,-5.3366,-5.3584,-5.3618,-5.3782,-5.3513,-5.3517,-5.3519,0,-5.2799,-5.2862,-5.303,-5.3077,-5.3111,-5.3187,-5.3256,-5.3323,-5.3372,-5.3378,-5.3424,-5.3406,-5.3502,-5.3423,-5.3554,-5.348,-5.3519,-5.3533,-5.3539,-5.3547,-5.3459,-5.3597,-5.3835,-5.3859,-5.3555,-5.3552,-5.355,0,-5.2946,-5.3073,-5.3189,-5.3219,-5.3278,-5.3332,-5.3359,-5.3404,-5.345,-5.351,-5.3539,-5.3609,-5.3647,-5.37,-5.37,-5.3643,-5.3832,-5.3754,-5.3838,-5.3838,-5.3879,-5.3877,-5.4125,-5.3906,-5.3905,-5.3905,-5.3904,0,-5.3143,-5.3246,-5.3255,-5.3327,-5.3441,-5.3435,-5.3547,-5.3568,-5.3609,-5.3682,-5.3653,-5.3722,-5.3717,-5.3786,-5.3786,-5.3894,-5.3912,-5.3917,-5.3916,-5.392,-5.3919,-5.3945,-5.3933,-5.3911,-5.391,-5.3909,-5.3908,0,-5.3326,-5.3337,-5.3461,-5.3506,-5.352,-5.3602,-5.364,-5.3706,-5.3718,-5.3811,-5.3832,-5.3849,-5.3929,-5.3934,-5.4026,-5.4025,-5.4156,-5.4143,-5.414,-5.4137,-5.4221,-5.4213,-5.4494,-5.453,-5.4288,-5.429,-5.4292,0,-5.3451,-5.3529,-5.3583,-5.3631,-5.3661,-5.3738,-5.3785,-5.3782,-5.3831,-5.3893,-5.3952,-5.4029,-5.409,-5.4219,-5.4238,-5.4308,-5.4295,-5.4389,-5.4305,-5.4306,-5.4295,-5.429,-5.4297,-5.4405,-5.4408,-5.441,-5.4412,0,-5.367,-5.3671,-5.374,-5.3812,-5.3869,-5.3924,-5.3976,-5.4016,-5.4018,-5.4075,-5.4157,-5.4205,-5.4298,-5.4374,-5.4442,-5.4467,-5.444,-5.4438,-5.4461,-5.4465,-5.446,-5.4463,-5.4183,-5.4431,-5.4429,-5.4428,-5.4427,-5.4426,-5.3827,-5.3895,-5.3943,-5.4021,-5.4059,-5.4108,-5.4173,-5.4192,-5.4261,-5.4338,-5.4331,-5.4421,-5.4467,-5.4555,-5.4585,-5.4654,-5.4622,-5.4656,-5.4664,-5.4672,-5.468,-5.445,-5.4667,-5.4666,-5.4665,-5.4665,-5.4665,0,-5.4044,-5.4073,-5.4145,-5.4218,-5.4279,-5.4249,-5.4304,-5.4356,-5.4436,-5.4482,-5.4543,-5.4636,-5.4709,-5.4735,-5.4806,-5.4856,-5.4845,-5.4874,-5.487,-5.4876,-5.4706,-5.4678,-5.4882,-5.4882,-5.4882,-5.4882,-5.4882,-5.4882,-5.4164,-5.4276,-5.4283,-5.4413,-5.4441,-5.4531,-5.4564,-5.4608,-5.4644,-5.475,-5.4811,-5.4828,-5.4865,-5.4938,-5.5003,-5.5008,-5.5035,-5.507,-5.507,-5.491,-5.4888,-5.4867,-5.4842,-5.5076,-5.5076,-5.5234,-5.5236,-5.5237]}]]